AP586 Weather Reports


Display with metric or nautical units.
time (UTC)temp
F
wind
direction
speed
MPH
gust
MPH
rain 1hr
in
rain 24hr
in
rain mn
in
humidity
%
barometer
mb
20260505034544 55 190 5.0 14.0 0.00 0.00 0.00 65 1007.9
20260505033040 56 205 5.0 13.0 0.00 0.00 0.00 64 1007.8
20260505031549 56 216 5.0 13.0 0.00 0.00 0.00 62 1007.8
20260505030043 57 191 6.0 14.0 0.00 0.00 0.00 60 1007.9
20260505024540 57 189 5.0 13.0 0.00 0.00 0.00 59 1007.9
20260505023038 57 234 5.0 14.0 0.00 0.00 0.00 57 1007.9
20260505021538 58 200 7.0 16.0 0.00 0.00 0.00 56 1007.9
20260505020041 58 202 5.0 13.0 0.00 0.00 0.00 54 1007.9
20260505014541 59 242 4.0 15.0 0.00 0.00 0.00 53 1007.8
20260505013035 59 210 5.0 12.0 0.00 0.00 0.00 51 1007.7
20260505011538 59 216 7.0 21.0 0.00 0.00 0.00 51 1007.3
20260505010034 59 239 5.0 15.0 0.00 0.00 0.00 51 1007.2
20260505004533 60 182 4.0 15.0 0.00 0.00 0.00 51 1006.9
20260505003032 61 196 5.0 17.0 0.00 0.00 0.00 49 1006.6
20260505001532 62 175 9.0 15.0 0.00 0.00 0.00 47 1006.1
20260505000045 63 211 7.0 28.0 0.00 0.00 0.00 43 1005.8
20260504234532 64 126 6.0 19.0 0.00 0.00 0.00 43 1005.6
20260504233029 65 213 9.0 18.0 0.00 0.00 0.00 42 1005.3
20260504231529 65 175 7.0 21.0 0.00 0.00 0.00 42 1005.0
20260504230029 66 188 14.0 26.0 0.00 0.00 0.00 40 1004.6
20260504224528 67 159 5.0 21.0 0.00 0.00 0.00 39 1004.4
20260504223029 67 176 8.0 27.0 0.00 0.00 0.00 38 1004.3
20260504221528 69 190 10.0 24.0 0.00 0.00 0.00 35 1004.2
20260504220040 70 146 11.0 29.0 0.00 0.00 0.00 33 1004.0
20260504214524 72 167 7.0 24.0 0.00 0.00 0.00 30 1004.1
20260504213021 73 253 4.0 20.0 0.00 0.00 0.00 28 1004.0
20260504211520 73 200 6.0 17.0 0.00 0.00 0.00 27 1004.0
20260504210018 74 240 5.0 17.0 0.00 0.00 0.00 27 1003.9
20260504204521 74 104 6.0 16.0 0.00 0.00 0.00 26 1004.0
20260504203013 74 244 5.0 14.0 0.00 0.00 0.00 26 1004.0
20260504201510 73 169 8.0 22.0 0.00 0.00 0.00 26 1004.3
20260504200009 73 298 14.0 31.0 0.00 0.01 0.00 26 1004.3
20260504194507 72 206 9.0 24.0 0.00 0.01 0.00 25 1004.3
20260504193005 73 243 9.0 22.0 0.00 0.01 0.00 25 1004.3
20260504191504 72 205 9.0 34.0 0.00 0.01 0.00 25 1004.3
20260504190109 73 167 6.0 22.0 0.00 0.01 0.00 25 1004.4
20260504184558 73 65 4.0 19.0 0.00 0.01 0.00 25 1004.4
20260504183101 72 293 7.0 22.0 0.00 0.01 0.00 26 1004.6
20260504181552 72 198 11.0 23.0 0.00 0.01 0.00 26 1004.8
20260504180130 71 153 9.0 19.0 0.00 0.01 0.00 27 1004.8
20260504174547 70 177 7.0 22.0 0.00 0.01 0.00 28 1005.0
20260504173046 70 182 8.0 22.0 0.00 0.01 0.00 29 1005.0
20260504171545 70 196 6.0 23.0 0.00 0.01 0.00 29 1005.0
20260504081506 47 198 2.0 5.0 0.00 0.01 0.00 53 1008.1
20260504044537 38 221 0.0 4.0 0.00 0.01 0.00 68 1008.0
20260504043040 39 216 0.0 0.0 0.00 0.01 0.00 67 1007.9
20260504041527 39 216 0.0 0.0 0.00 0.01 0.00 64 1007.9
20260504040025 40 216 0.0 0.0 0.00 0.01 0.01 63 1007.7